Regional Weather Roundup
Issued by NWS

Home | Current Version | Previous Version | Graphics & Text | Print | Product List | Glossary Off
Versions: 1 2 3 4 5 6 7 8 9 10 11 12 13 14 15 16 17 18 19 20 21 22 23 24 25 26 27 28 29 30 31 32 33 34 35 36 37 38 39 40 41 42 43 44 45 46 47 48 49 50

000
ASUS43 KDMX 010008
RWRIA

WEATHER ROUNDUP FOR IOWA
NATIONAL WEATHER SERVICE DES MOINES IA
700 PM CDT SAT APR 30 2016

NOTE: "FAIR" INDICATES FEW OR NO CLOUDS BELOW 12,000 FEET WITH NO
SIGNIFICANT WEATHER AND/OR OBSTRUCTIONS TO VISIBILITY.

* - THESE STATIONS ARE NOT NWS STATIONS...THUS NOT UNDER NWS
QUALITY CONTROL.  THEY ALSO DO NOT REPORT WEATHER SUCH
AS PRECIPITATION OR FOG.

IAZ001>003-012>014-020>022-031>034-043>046-010100-
   NORTHWEST IOWA

CITY           SKY/WX    TMP DP  RH WIND       PRES   REMARKS
CARROLL *      CLOUDY    46  46 100 E22G30    29.86S FOG
CHEROKEE *     CLOUDY    44  43  97 NE17G28   29.91R FOG
DENISON *      CLOUDY    46  46 100 E21G29    29.82R FOG
LE MARS *      CLOUDY    45  43  93 NE20G30   29.92R
ORANGE CITY *  CLOUDY    45  43  93 E17G29    29.92R FOG
SHELDON *      CLOUDY    43  43 100 E30G39    29.93R FOG
SIOUX CITY     LGT RAIN  47  43  86 E23G32    29.87R
6HR MIN TEMP:  47; 6HR MAX TEMP:  49; 6HR PCP:  0.04;

SPENCER        LGT RAIN  43  40  89 E26G37    29.96R FOG
6HR MIN TEMP:  43; 6HR MAX TEMP:  45; 6HR PCP:  0.21;

STORM LAKE *   CLOUDY    43  43 100 E25G35    29.89S FOG
$$

IAZ055>058-069>071-079>083-090>094-010100-
   SOUTHWEST IOWA

CITY           SKY/WX    TMP DP  RH WIND       PRES   REMARKS
ATLANTIC *     CLOUDY    50  48  93 E13G21    29.81R
AUDUBON *      LGT RAIN  48  46  93 NE18      29.84R
CLARINDA *       N/A    N/A N/A N/A MISG        N/A
COUNCIL BLFS * CLOUDY    48  48 100 E12G20    29.80R
CRESTON *      CLOUDY    50  50 100 E17       29.81R
HARLAN  *      PTSUNNY   48  48 100 E20G29    29.84S FOG
LAMONI         CLOUDY    53  52  96 NE12      29.79R
6HR MIN TEMP:  52; 6HR MAX TEMP:  57;

RED OAK *      CLOUDY    52  50  93 NE12      29.79R
SHENANDOAH *   CLOUDY    54  54 100 NE13      29.78S
$$

IAZ047>049-059>061-072>074-084-010100-
   CENTRAL IOWA

CITY           SKY/WX    TMP DP  RH WIND       PRES   REMARKS
AMES           CLOUDY    47  47 100 E17G28    29.87R
6HR MIN TEMP:  46; 6HR MAX TEMP:  49; 6HR PCP:  0.18;

ANKENY *       CLOUDY    48  48 100 E14G21    29.85R FOG
BOONE *        FOG       46  46 100 E23G31    29.86R VSB 1
CHARITON *     CLOUDY    50  50 100 NE14      29.81R
DES MOINES     DRIZZLE   50  46  86 E12G20    29.84R FOG
6HR MIN TEMP:  49; 6HR MAX TEMP:  51; 6HR PCP:  0.06;

GRINNELL*      LGT RAIN  46  46 100 NE23G30   29.86S
KNOXVILLE *    CLOUDY    48  46  93 NE14G24   29.82R FOG
MARSHALLTOWN   CLOUDY    47  44  90 NE23G30   29.88R
6HR MIN TEMP:  47; 6HR MAX TEMP:  49; 6HR PCP:  0.18;

NEWTON *       CLOUDY    48  48 100 NE18G24   29.85R FOG
PELLA *        LGT RAIN  48  47  95 E8G18     29.85S
$$

IAZ004>006-015-016-023>025-035-036-010100-
   NORTH CENTRAL IOWA

CITY           SKY/WX    TMP DP  RH WIND       PRES   REMARKS
ALGONA *       CLOUDY    45  43  93 E20G29    29.96R
CLARION *      PTSUNNY   45  45 100 E25       29.92S FOG
ESTHERVILLE    CLOUDY    43  41  93 NE26      29.97R
6HR MIN TEMP:  42; 6HR MAX TEMP:  44; 6HR PCP:  0.43;

FORT DODGE *   CLOUDY    46  41  81 E18       29.91S
MASON CITY     CLOUDY    45  41  86 E22G30    29.97R
6HR MIN TEMP:  43; 6HR MAX TEMP:  45; 6HR PCP:  0.35;

FOREST CITY *  CLOUDY    45  41  87 NE14G22   29.96R
WEBSTER CITY * CLOUDY    46  46 100 E24G32    29.88S FOG
IOWA FALLS *   CLOUDY    46  43  87 E20G31    29.91F FOG
$$

IAZ007>011-017>019-026>030-037>042-050>054-066-010100-
   NORTHEAST IOWA

CITY           SKY/WX    TMP DP  RH WIND       PRES   REMARKS
CEDAR RAPIDS   CLOUDY    46  46 100 E21G28    29.86S FOG
6HR MIN TEMP:  46; 6HR MAX TEMP:  49;

CHARLES CITY * CLOUDY    46  45  93 E22G31    29.96R
CLINTON *      LGT RAIN  45  44  97 NE21      29.89F FOG
DECORAH *      CLOUDY    45  45 100 NE14G25   29.97R
DUBUQUE        CLOUDY    43  41  93 NE20      29.93R FOG
6HR MIN TEMP:  43; 6HR MAX TEMP:  47; 6HR PCP:  0.53;

MONTICELLO *   PTSUNNY   45  43  93 NE13G22   29.91S FOG
OELWEIN *      CLOUDY    45  45 100 NE23G31   29.93R
WATERLOO       CLOUDY    45  42  89 NE22G32   29.92R
6HR MIN TEMP:  45; 6HR MAX TEMP:  47; 6HR PCP:  0.53;

$$

IAZ064-065-067-068-078-010100-
   EAST CENTRAL IOWA

CITY           SKY/WX    TMP DP  RH WIND       PRES   REMARKS
DAVENPORT      CLOUDY    46  44  93 NE20G28   29.88S FOG
6HR MIN TEMP:  46; 6HR MAX TEMP:  49; 6HR PCP:  0.60;

IOWA CITY      CLOUDY    47  44  90 NE20G26   29.87S
6HR MIN TEMP:  47; 6HR MAX TEMP:  49; 6HR PCP:  0.40;

MT. PLEASANT * CLOUDY    52  52 100 NE20G25   29.81S FOG
MUSCATINE *    CLOUDY    48  45  87 NE17      29.86R
QUAD CITIES    CLOUDY    47  44  90 NE14G23   29.86S FOG
6HR MIN TEMP:  47; 6HR MAX TEMP:  50; 6HR PCP:  0.47;

$$

IAZ062-063-075>077-085>089-095>099-010100-
   SOUTHEAST IOWA

CITY           SKY/WX    TMP DP  RH WIND       PRES   REMARKS
BURLINGTON     CLOUDY    53  53 100 NE17      29.79R FOG
6HR MIN TEMP:  53; 6HR MAX TEMP:  57; 6HR PCP:  0.07;

FAIRFIELD *    CLOUDY    50  48  93 NE15      29.81S FOG
FORT MADISON * CLOUDY    55  54  94 NE10      29.79S FOG
KEOKUK *       CLOUDY    59  59 100 N8        29.76S
OSKALOOSA *    LGT RAIN  47  46  96 NE22      29.82S
OTTUMWA        CLOUDY    49  47  93 NE21      29.81S FOG
6HR MIN TEMP:  49; 6HR MAX TEMP:  52; 6HR PCP:  0.01;

WASHINGTON *   CLOUDY    46  46 100 NE24G30   29.84S
$$

ABBREVIATIONS USED IN REMARKS
   TC - TEMPERATURES IN CELSIUS
  WCI - WIND CHILL INDEX
   HX - HEAT INDEX
  VSB - VISIBILITY
$$




USA.gov is the U.S. government's official web portal to all federal, state and local government web resources and services.